CFG161A LEPA-EDDF

Flight info

Callsign CFG161A
Flight time 1h 45m
Altitude 32000
Route MEROS DCT LAPIT DCT CHELY DCT LUMAS DCT MAXIR DCT LUSOL DCT BODRU DCT OKTET DCT IRMAR/N0451F360 DCT KINES DCT VANAS DCT MOBLO DCT UBIMA DCT SOSAL DCT KORED DCT BERSU N871 DITON/N0447F350 DCT LADOL/N0450F360 T163 EMPAX EMPAX5B
Aircraft A321/M-SDE3FGHIRWY/LB1

Departure

Time 2026-05-05 15:50
Airport Palma de Mallorca Airport (LEPA)

Arrival

Time 2026-05-05 17:36
Airport Frankfurt Main Airport (EDDF)
Time Latitude Longitude Altitude Speed Heading
2026-05-05 14:43 39.54696 2.73393 38 ft 0 kts 240°
2026-05-05 15:37 39.54705 2.73413 38 ft 4 kts 234°
2026-05-05 15:37 39.54722 2.73439 38 ft 4 kts 218°
2026-05-05 15:37 39.54745 2.73454 34 ft 4 kts 176°
2026-05-05 15:37 39.54758 2.73450 37 ft 1 kts 150°
2026-05-05 15:38 39.54760 2.73449 37 ft 0 kts 150°
2026-05-05 15:42 39.54759 2.73449 38 ft 1 kts 150°
2026-05-05 15:43 39.54714 2.73483 38 ft 11 kts 149°
2026-05-05 15:43 39.54649 2.73533 36 ft 10 kts 148°
2026-05-05 15:43 39.54635 2.73606 36 ft 9 kts 68°
2026-05-05 15:43 39.54676 2.73706 38 ft 18 kts 60°
2026-05-05 15:44 39.54743 2.73849 38 ft 18 kts 58°
2026-05-05 15:44 39.54806 2.73974 38 ft 14 kts 48°
2026-05-05 15:44 39.54885 2.73970 38 ft 12 kts 331°
2026-05-05 15:44 39.54940 2.73990 38 ft 8 kts 50°
2026-05-05 15:45 39.54985 2.73998 38 ft 6 kts 343°
2026-05-05 15:45 39.55044 2.73955 37 ft 15 kts 329°
2026-05-05 15:45 39.55146 2.73874 38 ft 21 kts 328°
2026-05-05 15:45 39.55276 2.73770 38 ft 21 kts 329°
2026-05-05 15:46 39.55400 2.73673 38 ft 20 kts 329°
2026-05-05 15:46 39.55517 2.73581 38 ft 19 kts 328°
2026-05-05 15:46 39.55603 2.73513 37 ft 10 kts 332°
2026-05-05 15:46 39.55662 2.73525 38 ft 8 kts 43°
2026-05-05 15:47 39.55705 2.73608 38 ft 16 kts 58°
2026-05-05 15:47 39.55761 2.73725 38 ft 14 kts 59°
2026-05-05 15:47 39.55810 2.73831 38 ft 14 kts 58°
2026-05-05 15:47 39.55880 2.73976 38 ft 22 kts 58°
2026-05-05 15:48 39.55954 2.74135 38 ft 20 kts 58°
2026-05-05 15:48 39.56019 2.74272 38 ft 15 kts 58°
2026-05-05 15:48 39.56070 2.74379 38 ft 13 kts 57°
2026-05-05 15:48 39.56128 2.74447 38 ft 10 kts 14°
2026-05-05 15:49 39.56192 2.74427 38 ft 9 kts 332°
2026-05-05 15:49 39.56248 2.74343 38 ft 16 kts 281°
2026-05-05 15:49 39.56199 2.74205 38 ft 22 kts 238°
2026-05-05 15:49 39.56023 2.73836 38 ft 80 kts 238°
2026-05-05 15:50 39.55635 2.73015 37 ft 131 kts 239°
2026-05-05 15:50 39.55086 2.71853 53 ft 168 kts 238°
2026-05-05 15:50 39.54465 2.70527 539 ft 171 kts 237°
2026-05-05 15:50 39.53847 2.69208 1155 ft 172 kts 239°
2026-05-05 15:51 39.53202 2.67844 1460 ft 186 kts 238°
2026-05-05 15:51 39.52481 2.66326 1655 ft 207 kts 238°
2026-05-05 15:51 39.51720 2.64721 2248 ft 210 kts 238°
2026-05-05 15:51 39.50956 2.63112 3008 ft 210 kts 240°
2026-05-05 15:52 39.50174 2.61501 3628 ft 214 kts 235°
2026-05-05 15:52 39.48991 2.60216 3915 ft 240 kts 210°
2026-05-05 15:52 39.47401 2.59217 4316 ft 259 kts 203°
2026-05-05 15:52 39.45615 2.58869 4968 ft 271 kts 177°
2026-05-05 15:53 39.43815 2.59678 5709 ft 282 kts 148°
2026-05-05 15:53 39.42508 2.61586 6444 ft 291 kts 117°
2026-05-05 15:53 39.42082 2.64149 7161 ft 297 kts 91°
2026-05-05 15:53 39.42101 2.66829 7882 ft 300 kts 90°
2026-05-05 15:54 39.42143 2.69538 8581 ft 303 kts 91°
2026-05-05 15:54 39.42190 2.72276 9277 ft 306 kts 91°
2026-05-05 15:54 39.42242 2.75045 9947 ft 311 kts 89°
2026-05-05 15:54 39.42686 2.77851 10224 ft 332 kts 67°
2026-05-05 15:55 39.44016 2.80393 10361 ft 353 kts 47°
2026-05-05 15:55 39.45708 2.82821 10470 ft 374 kts 47°
2026-05-05 15:55 39.47505 2.85371 10730 ft 388 kts 47°
2026-05-05 15:55 39.49337 2.87971 11267 ft 394 kts 47°
2026-05-05 15:56 39.51190 2.90616 11853 ft 399 kts 47°
2026-05-05 15:56 39.53055 2.93302 12456 ft 403 kts 47°
2026-05-05 15:56 39.54941 2.96032 13040 ft 408 kts 47°
2026-05-05 15:56 39.56840 2.98788 13595 ft 413 kts 47°
2026-05-05 15:57 39.58765 3.01583 14092 ft 418 kts 47°
2026-05-05 15:57 39.60712 3.04406 14603 ft 422 kts 47°
2026-05-05 15:57 39.62677 3.07253 15107 ft 425 kts 47°
2026-05-05 15:57 39.64657 3.10123 15620 ft 428 kts 47°
2026-05-05 15:58 39.66653 3.13020 16133 ft 432 kts 47°
2026-05-05 15:58 39.68662 3.15940 16622 ft 435 kts 47°
2026-05-05 15:58 39.70687 3.18886 17114 ft 439 kts 47°
2026-05-05 15:58 39.72728 3.21860 17584 ft 442 kts 47°
2026-05-05 15:59 39.74784 3.24860 18053 ft 446 kts 46°
2026-05-05 15:59 39.76830 3.27843 18477 ft 450 kts 46°
2026-05-05 15:59 39.78918 3.30894 18852 ft 454 kts 46°
2026-05-05 15:59 39.81023 3.33974 19240 ft 458 kts 46°
2026-05-05 16:00 39.83146 3.37085 19621 ft 461 kts 47°
2026-05-05 16:00 39.85286 3.40220 19996 ft 465 kts 46°
2026-05-05 16:00 39.87442 3.43381 20373 ft 469 kts 46°
2026-05-05 16:00 39.89613 3.46569 20746 ft 472 kts 46°
2026-05-05 16:01 39.91798 3.49781 21122 ft 476 kts 47°
2026-05-05 16:01 39.93996 3.53019 21492 ft 479 kts 47°
2026-05-05 16:01 39.96209 3.56283 21864 ft 482 kts 47°
2026-05-05 16:01 39.98442 3.59578 22254 ft 486 kts 47°
2026-05-05 16:02 40.00691 3.62902 22611 ft 490 kts 47°
2026-05-05 16:02 40.02951 3.66249 22969 ft 493 kts 47°
2026-05-05 16:02 40.05228 3.69625 23320 ft 497 kts 47°
2026-05-05 16:02 40.07522 3.73021 23638 ft 500 kts 47°
2026-05-05 16:03 40.09824 3.76434 23938 ft 503 kts 47°
2026-05-05 16:03 40.12137 3.79875 24242 ft 505 kts 47°
2026-05-05 16:03 40.14464 3.83339 24563 ft 507 kts 47°
2026-05-05 16:03 40.16793 3.86805 24888 ft 509 kts 47°
2026-05-05 16:04 40.19138 3.90294 25201 ft 511 kts 47°
2026-05-05 16:04 40.21494 3.93803 25491 ft 514 kts 47°
2026-05-05 16:04 40.23849 3.97319 25777 ft 516 kts 47°
2026-05-05 16:04 40.26225 4.00869 26061 ft 518 kts 47°
2026-05-05 16:05 40.28599 4.04423 26320 ft 521 kts 47°
2026-05-05 16:05 40.30964 4.07970 26587 ft 523 kts 48°
2026-05-05 16:05 40.33358 4.11567 26857 ft 525 kts 48°
2026-05-05 16:05 40.35795 4.15233 27147 ft 528 kts 48°
2026-05-05 16:06 40.38177 4.18821 27391 ft 530 kts 48°
2026-05-05 16:06 40.40635 4.22526 27694 ft 532 kts 48°
2026-05-05 16:06 40.43039 4.26148 27926 ft 535 kts 48°
2026-05-05 16:06 40.45563 4.29744 28164 ft 536 kts 42°
2026-05-05 16:07 40.48426 4.32867 28476 ft 534 kts 32°
2026-05-05 16:07 40.51568 4.35414 28818 ft 529 kts 23°
2026-05-05 16:07 40.54923 4.37352 29142 ft 523 kts 14°
2026-05-05 16:07 40.58405 4.38648 29462 ft 517 kts
2026-05-05 16:08 40.61931 4.39496 29776 ft 515 kts
2026-05-05 16:08 40.65460 4.40329 30076 ft 515 kts
2026-05-05 16:08 40.68992 4.41169 30356 ft 515 kts
2026-05-05 16:08 40.72517 4.42016 30658 ft 515 kts
2026-05-05 16:09 40.76042 4.42868 30958 ft 515 kts
2026-05-05 16:09 40.79568 4.43720 31263 ft 514 kts
2026-05-05 16:09 40.83079 4.44568 31592 ft 513 kts
2026-05-05 16:09 40.86595 4.45419 31834 ft 514 kts
2026-05-05 16:10 40.90117 4.46271 31903 ft 514 kts
2026-05-05 16:10 40.97155 4.47977 31904 ft 514 kts
2026-05-05 16:11 41.04183 4.49684 31903 ft 511 kts
2026-05-05 16:12 41.18105 4.53068 31904 ft 508 kts
2026-05-05 16:13 41.35511 4.57318 31899 ft 510 kts
2026-05-05 16:13 41.42482 4.59040 31891 ft 509 kts
2026-05-05 16:14 41.56419 4.62473 31907 ft 510 kts
2026-05-05 16:15 41.70378 4.65992 31922 ft 514 kts
2026-05-05 16:16 41.77062 4.69636 31897 ft 526 kts 27°
2026-05-05 16:16 41.83306 4.74677 31886 ft 527 kts 28°
2026-05-05 16:17 41.92748 4.82281 31903 ft 528 kts 27°
2026-05-05 16:18 42.02205 4.89918 31897 ft 529 kts 27°
2026-05-05 16:19 42.11665 4.97580 31896 ft 529 kts 28°
2026-05-05 16:19 42.21131 5.05284 31899 ft 530 kts 28°
2026-05-05 16:20 42.33720 5.15572 31913 ft 531 kts 28°
2026-05-05 16:22 42.49531 5.28569 31937 ft 532 kts 28°
2026-05-05 16:23 42.62187 5.39021 31895 ft 532 kts 28°
2026-05-05 16:23 42.71631 5.46847 31906 ft 532 kts 28°
2026-05-05 16:24 42.77953 5.52099 31908 ft 532 kts 28°
2026-05-05 16:25 42.87422 5.60014 31910 ft 532 kts 28°
2026-05-05 16:25 42.96885 5.67956 31939 ft 532 kts 28°
2026-05-05 16:26 43.08472 5.77689 31941 ft 531 kts 28°
2026-05-05 16:27 43.14754 5.82995 31946 ft 531 kts 28°
2026-05-05 16:27 43.21039 5.88307 31943 ft 530 kts 28°
2026-05-05 16:28 43.27269 5.93589 31929 ft 529 kts 28°
2026-05-05 16:28 43.33536 5.98923 31951 ft 530 kts 28°
2026-05-05 16:29 43.40118 6.03212 31911 ft 518 kts 11°
2026-05-05 16:29 43.47102 6.04800 31901 ft 503 kts 356°
2026-05-05 16:30 43.54095 6.05470 31917 ft 504 kts 356°
2026-05-05 16:30 43.61100 6.06204 31906 ft 505 kts 356°
2026-05-05 16:31 43.68096 6.06926 31918 ft 504 kts 357°
2026-05-05 16:31 43.75087 6.07831 31905 ft 510 kts
2026-05-05 16:32 43.81870 6.11044 31891 ft 523 kts 21°
2026-05-05 16:32 43.88357 6.15482 31919 ft 523 kts 22°
2026-05-05 16:33 43.94885 6.19928 31920 ft 523 kts 21°
2026-05-05 16:33 44.01412 6.24372 31925 ft 522 kts 22°
2026-05-05 16:34 44.07923 6.28848 31947 ft 521 kts 22°
2026-05-05 16:34 44.14406 6.33322 31934 ft 519 kts 22°
2026-05-05 16:35 44.20880 6.37782 31933 ft 519 kts 22°
2026-05-05 16:35 44.27344 6.42237 31938 ft 517 kts 22°
2026-05-05 16:36 44.33798 6.46700 31900 ft 517 kts 22°
2026-05-05 16:36 44.40224 6.51170 31901 ft 516 kts 22°
2026-05-05 16:37 44.46651 6.55653 31938 ft 516 kts 22°
2026-05-05 16:37 44.53065 6.60130 31933 ft 515 kts 22°
2026-05-05 16:38 44.59470 6.64608 31917 ft 514 kts 22°
2026-05-05 16:38 44.65862 6.69085 31908 ft 514 kts 22°
2026-05-05 16:39 44.72251 6.73584 31933 ft 517 kts 23°
2026-05-05 16:39 44.75492 6.75806 32070 ft 516 kts 18°
2026-05-05 16:39 44.78872 6.77458 32274 ft 513 kts
2026-05-05 16:40 44.82345 6.78404 32647 ft 505 kts
2026-05-05 16:40 44.85823 6.78675 32983 ft 496 kts 351°
2026-05-05 16:40 44.89261 6.78469 33290 ft 494 kts 349°
2026-05-05 16:40 44.92695 6.78239 33582 ft 494 kts 349°
2026-05-05 16:41 44.96124 6.78010 33831 ft 494 kts 349°
2026-05-05 16:41 44.99560 6.77783 34081 ft 493 kts 350°
2026-05-05 16:41 45.02983 6.77550 34348 ft 491 kts 350°
2026-05-05 16:41 45.06396 6.77315 34600 ft 490 kts 350°
2026-05-05 16:42 45.09797 6.77081 34876 ft 489 kts 350°
2026-05-05 16:42 45.13155 6.76851 35154 ft 488 kts 351°
2026-05-05 16:42 45.16588 6.76617 35457 ft 487 kts 351°
2026-05-05 16:42 45.19965 6.76390 35745 ft 486 kts 351°
2026-05-05 16:43 45.23341 6.76165 35893 ft 486 kts 351°
2026-05-05 16:43 45.26719 6.75945 35911 ft 485 kts 351°
2026-05-05 16:43 45.33460 6.75510 35910 ft 485 kts 351°
2026-05-05 16:44 45.40203 6.75066 35910 ft 485 kts 352°
2026-05-05 16:44 45.46890 6.74607 35914 ft 484 kts 351°
2026-05-05 16:45 45.53629 6.74136 35910 ft 485 kts 352°
2026-05-05 16:45 45.60378 6.73673 35923 ft 485 kts 352°
2026-05-05 16:46 45.67108 6.73211 35904 ft 484 kts 352°
2026-05-05 16:46 45.73831 6.72748 35908 ft 484 kts 352°
2026-05-05 16:47 45.80559 6.72286 35931 ft 484 kts 352°
2026-05-05 16:47 45.87287 6.71826 35922 ft 483 kts 352°
2026-05-05 16:48 45.94016 6.71382 35938 ft 483 kts 352°
2026-05-05 16:48 46.00721 6.70928 35948 ft 482 kts 353°
2026-05-05 16:49 46.07412 6.70457 35937 ft 480 kts 353°
2026-05-05 16:49 46.14117 6.70878 35929 ft 487 kts
2026-05-05 16:50 46.20680 6.73488 35936 ft 489 kts 14°
2026-05-05 16:50 46.27203 6.76266 35931 ft 489 kts 13°
2026-05-05 16:51 46.33725 6.79031 35921 ft 488 kts 13°
2026-05-05 16:51 46.40248 6.81792 35920 ft 488 kts 14°
2026-05-05 16:52 46.46718 6.84539 35922 ft 487 kts 14°
2026-05-05 16:52 46.53101 6.87877 35890 ft 490 kts 26°
2026-05-05 16:53 46.58589 6.93736 35892 ft 492 kts 46°
2026-05-05 16:53 46.62984 7.01358 35893 ft 493 kts 51°
2026-05-05 16:54 46.67286 7.09112 35893 ft 493 kts 51°
2026-05-05 16:54 46.71607 7.16924 35895 ft 494 kts 51°
2026-05-05 16:55 46.75913 7.24731 35904 ft 494 kts 52°
2026-05-05 16:55 46.80205 7.32534 35912 ft 492 kts 52°
2026-05-05 16:56 46.84483 7.40344 35882 ft 492 kts 52°
2026-05-05 16:56 46.88751 7.48170 35883 ft 493 kts 52°
2026-05-05 16:57 46.93008 7.56017 35872 ft 493 kts 52°
2026-05-05 16:57 46.97260 7.63871 35892 ft 491 kts 52°
2026-05-05 16:58 47.01504 7.71707 35894 ft 490 kts 52°
2026-05-05 16:58 47.05735 7.79539 35893 ft 490 kts 52°
2026-05-05 16:59 47.09950 7.87381 35892 ft 489 kts 52°
2026-05-05 16:59 47.14045 7.95258 35904 ft 487 kts 59°
2026-05-05 17:00 47.17635 8.03671 35901 ft 486 kts 59°
2026-05-05 17:00 47.21242 8.12131 35900 ft 485 kts 59°
2026-05-05 17:01 47.24810 8.20538 35897 ft 484 kts 59°
2026-05-05 17:01 47.28439 8.28638 35896 ft 485 kts 51°
2026-05-05 17:02 47.30908 8.32428 35868 ft 486 kts 40°
2026-05-05 17:02 47.33606 8.35419 35866 ft 485 kts 31°
2026-05-05 17:02 47.39588 8.39912 35863 ft 485 kts 24°
2026-05-05 17:03 47.45672 8.44223 35882 ft 485 kts 24°
2026-05-05 17:03 47.51756 8.48555 35894 ft 485 kts 25°
2026-05-05 17:04 47.57821 8.52873 35892 ft 484 kts 25°
2026-05-05 17:04 47.62562 8.56254 35891 ft 484 kts 25°
2026-05-05 17:05 47.67601 8.59857 35883 ft 484 kts 25°
2026-05-05 17:05 47.74428 8.64740 35875 ft 483 kts 25°
2026-05-05 17:06 47.80480 8.69097 35864 ft 482 kts 25°
2026-05-05 17:06 47.86512 8.73459 35860 ft 482 kts 25°
2026-05-05 17:07 47.91527 8.77089 35859 ft 482 kts 26°
2026-05-05 17:07 47.98507 8.82112 35858 ft 481 kts 25°
2026-05-05 17:08 48.03550 8.85750 35864 ft 480 kts 26°
2026-05-05 17:08 48.08497 8.89350 35855 ft 480 kts 26°
2026-05-05 17:09 48.14522 8.93661 35861 ft 479 kts 21°
2026-05-05 17:09 48.20973 8.95996 35863 ft 477 kts
2026-05-05 17:10 48.27578 8.96956 35858 ft 477 kts
2026-05-05 17:10 48.34142 8.97952 35583 ft 476 kts
2026-05-05 17:11 48.37433 8.98460 35338 ft 475 kts
2026-05-05 17:11 48.40722 8.98968 34805 ft 477 kts
2026-05-05 17:11 48.44043 8.99479 33913 ft 483 kts
2026-05-05 17:11 48.47402 8.99995 32940 ft 487 kts
2026-05-05 17:12 48.50779 9.00511 32059 ft 489 kts
2026-05-05 17:12 48.54174 9.01029 31163 ft 491 kts
2026-05-05 17:12 48.57578 9.01551 30229 ft 493 kts
2026-05-05 17:12 48.61003 9.02077 29199 ft 495 kts
2026-05-05 17:13 48.64440 9.02636 28094 ft 497 kts
2026-05-05 17:13 48.67865 9.03331 27226 ft 495 kts
2026-05-05 17:13 48.71246 9.04139 26625 ft 488 kts
2026-05-05 17:13 48.74580 9.05003 25930 ft 484 kts 10°
2026-05-05 17:14 48.77890 9.05880 25271 ft 480 kts 10°
2026-05-05 17:14 48.81169 9.06732 24615 ft 477 kts
2026-05-05 17:14 48.84423 9.07544 23977 ft 472 kts
2026-05-05 17:14 48.87656 9.08320 23325 ft 468 kts
2026-05-05 17:15 48.90873 9.08981 22638 ft 462 kts
2026-05-05 17:15 48.94045 9.09475 22057 ft 455 kts
2026-05-05 17:15 48.97187 9.09874 21469 ft 449 kts
2026-05-05 17:15 49.00247 9.10233 20923 ft 443 kts
2026-05-05 17:16 49.03293 9.10595 20372 ft 437 kts
2026-05-05 17:16 49.06302 9.10976 19831 ft 431 kts
2026-05-05 17:16 49.09277 9.11381 19296 ft 427 kts
2026-05-05 17:16 49.12223 9.11801 18770 ft 424 kts
2026-05-05 17:17 49.15148 9.12229 18241 ft 420 kts
2026-05-05 17:17 49.18049 9.12655 17673 ft 417 kts
2026-05-05 17:17 49.20931 9.13075 17157 ft 414 kts
2026-05-05 17:17 49.23796 9.13491 16640 ft 411 kts
2026-05-05 17:18 49.26633 9.13904 16136 ft 408 kts
2026-05-05 17:18 49.29430 9.14523 15607 ft 406 kts 11°
2026-05-05 17:18 49.32172 9.15494 15051 ft 404 kts 11°
2026-05-05 17:18 49.34898 9.16459 14496 ft 401 kts 11°
2026-05-05 17:19 49.36699 9.17096 14135 ft 399 kts 11°
2026-05-05 17:19 49.39444 9.18069 13578 ft 397 kts 11°
2026-05-05 17:19 49.42126 9.19020 12987 ft 394 kts 11°
2026-05-05 17:19 49.44747 9.19950 12462 ft 390 kts 11°
2026-05-05 17:20 49.47412 9.20899 11920 ft 387 kts 11°
2026-05-05 17:20 49.50025 9.21829 11388 ft 383 kts 11°
2026-05-05 17:20 49.52609 9.22747 10870 ft 380 kts 11°
2026-05-05 17:20 49.55170 9.23659 10605 ft 373 kts 11°
2026-05-05 17:21 49.57646 9.24544 10487 ft 358 kts 11°
2026-05-05 17:21 49.60021 9.25394 10371 ft 344 kts 11°
2026-05-05 17:21 49.62308 9.26212 10245 ft 331 kts 12°
2026-05-05 17:22 49.66639 9.27767 9974 ft 310 kts 12°
2026-05-05 17:22 49.68722 9.28515 9845 ft 305 kts 12°
2026-05-05 17:22 49.70778 9.29252 9828 ft 303 kts 12°
2026-05-05 17:22 49.72834 9.29989 9830 ft 303 kts 11°
2026-05-05 17:23 49.74919 9.30159 9832 ft 300 kts 349°
2026-05-05 17:23 49.76959 9.29522 9833 ft 299 kts 345°
2026-05-05 17:23 49.78985 9.28777 9829 ft 299 kts 344°
2026-05-05 17:23 49.81009 9.28019 9829 ft 299 kts 344°
2026-05-05 17:24 49.83036 9.27250 9827 ft 300 kts 345°
2026-05-05 17:24 49.85055 9.26440 9666 ft 299 kts 344°
2026-05-05 17:24 49.87059 9.25616 9268 ft 298 kts 344°
2026-05-05 17:24 49.89057 9.24793 8882 ft 296 kts 344°
2026-05-05 17:25 49.91040 9.23974 8519 ft 294 kts 344°
2026-05-05 17:25 49.92352 9.23434 8281 ft 293 kts 344°
2026-05-05 17:25 49.94977 9.22355 7809 ft 291 kts 344°
2026-05-05 17:25 49.96904 9.21559 7462 ft 289 kts 344°
2026-05-05 17:26 49.98847 9.20761 7127 ft 288 kts 344°
2026-05-05 17:26 50.00757 9.19973 6872 ft 285 kts 344°
2026-05-05 17:26 50.02603 9.18823 6823 ft 283 kts 327°
2026-05-05 17:26 50.04263 9.17160 6825 ft 284 kts 324°
2026-05-05 17:27 50.05894 9.15443 6746 ft 282 kts 324°
2026-05-05 17:27 50.07514 9.13734 6382 ft 281 kts 324°
2026-05-05 17:27 50.09130 9.12033 6042 ft 279 kts 324°
2026-05-05 17:27 50.10731 9.10341 5696 ft 277 kts 324°
2026-05-05 17:28 50.12313 9.08591 5367 ft 273 kts 316°
2026-05-05 17:28 50.13374 9.06226 5037 ft 265 kts 290°
2026-05-05 17:28 50.13957 9.03512 4820 ft 264 kts 284°
2026-05-05 17:28 50.14474 9.00755 4826 ft 265 kts 284°
2026-05-05 17:29 50.14981 8.98025 4830 ft 262 kts 284°
2026-05-05 17:29 50.15478 8.95338 4822 ft 248 kts 284°
2026-05-05 17:29 50.15862 8.92815 4817 ft 230 kts 268°
2026-05-05 17:29 50.15502 8.90535 4819 ft 215 kts 232°
2026-05-05 17:30 50.14387 8.88923 4831 ft 223 kts 218°
2026-05-05 17:30 50.13189 8.87366 4833 ft 225 kts 223°
2026-05-05 17:30 50.12271 8.85444 4838 ft 216 kts 241°
2026-05-05 17:30 50.11689 8.83345 4649 ft 208 kts 248°
2026-05-05 17:31 50.11198 8.81274 4375 ft 199 kts 249°
2026-05-05 17:31 50.10734 8.79298 4088 ft 191 kts 249°
2026-05-05 17:31 50.10292 8.77423 3826 ft 178 kts 249°
2026-05-05 17:31 50.09875 8.75657 3577 ft 171 kts 249°
2026-05-05 17:32 50.09464 8.73919 3338 ft 171 kts 250°
2026-05-05 17:32 50.09053 8.72182 3098 ft 171 kts 250°
2026-05-05 17:32 50.08643 8.70453 2849 ft 169 kts 249°
2026-05-05 17:32 50.08236 8.68733 2611 ft 169 kts 250°
2026-05-05 17:33 50.07830 8.67025 2386 ft 168 kts 250°
2026-05-05 17:33 50.07427 8.65327 2135 ft 167 kts 251°
2026-05-05 17:33 50.07025 8.63631 1902 ft 164 kts 250°
2026-05-05 17:33 50.06645 8.62035 1662 ft 152 kts 250°
2026-05-05 17:34 50.06283 8.60514 1454 ft 148 kts 250°
2026-05-05 17:34 50.05927 8.59018 1217 ft 147 kts 250°
2026-05-05 17:34 50.05571 8.57521 964 ft 148 kts 250°
2026-05-05 17:34 50.05214 8.56021 740 ft 148 kts 249°
2026-05-05 17:35 50.04863 8.54530 576 ft 147 kts 250°
2026-05-05 17:35 50.04507 8.53041 374 ft 146 kts 249°
2026-05-05 17:35 50.04167 8.51635 331 ft 129 kts 249°
2026-05-05 17:35 50.03911 8.50561 323 ft 81 kts 249°
2026-05-05 17:36 50.03775 8.49995 316 ft 31 kts 250°
2026-05-05 17:36 50.03713 8.49803 314 ft 18 kts 219°
2026-05-05 17:36 50.03603 8.49792 314 ft 16 kts 153°
2026-05-05 17:36 50.03563 8.49854 318 ft 0 kts 119°
2026-05-05 17:37 50.03561 8.49858 318 ft 2 kts 118°
2026-05-05 17:37 50.03551 8.49912 319 ft 10 kts 96°
2026-05-05 17:38 50.03566 8.50028 320 ft 10 kts 70°
2026-05-05 17:38 50.03588 8.50118 321 ft 10 kts 69°
2026-05-05 17:38 50.03632 8.50304 325 ft 23 kts 69°
2026-05-05 17:38 50.03684 8.50522 325 ft 20 kts 69°
2026-05-05 17:39 50.03730 8.50712 330 ft 18 kts 70°
2026-05-05 17:39 50.03773 8.50894 332 ft 19 kts 70°
2026-05-05 17:39 50.03818 8.51077 332 ft 17 kts 70°
2026-05-05 17:39 50.03864 8.51274 335 ft 21 kts 69°
2026-05-05 17:40 50.03916 8.51489 333 ft 23 kts 70°
2026-05-05 17:40 50.03975 8.51734 335 ft 24 kts 69°
2026-05-05 17:40 50.04032 8.51973 336 ft 23 kts 69°
2026-05-05 17:40 50.04084 8.52192 351 ft 20 kts 70°
2026-05-05 17:41 50.04132 8.52393 351 ft 22 kts 70°
2026-05-05 17:41 50.04202 8.52684 354 ft 33 kts 69°
2026-05-05 17:41 50.04279 8.53004 356 ft 31 kts 69°
2026-05-05 17:41 50.04348 8.53292 367 ft 27 kts 69°
2026-05-05 17:42 50.04397 8.53542 375 ft 22 kts 84°
2026-05-05 17:42 50.04412 8.53773 375 ft 21 kts 84°
2026-05-05 17:42 50.04427 8.53994 375 ft 20 kts 84°
2026-05-05 17:42 50.04441 8.54206 375 ft 19 kts 84°
2026-05-05 17:43 50.04454 8.54412 372 ft 20 kts 89°
2026-05-05 17:43 50.04414 8.54631 365 ft 22 kts 121°
2026-05-05 17:43 50.04292 8.54785 357 ft 20 kts 158°
2026-05-05 17:43 50.04179 8.54846 357 ft 16 kts 160°
2026-05-05 17:44 50.04102 8.54891 350 ft 6 kts 159°
2026-05-05 17:44 50.04088 8.54899 355 ft 0 kts 159°
2026-05-05 17:45 50.04061 8.54915 356 ft 12 kts 160°
2026-05-05 17:45 50.03985 8.54960 358 ft 10 kts 159°
2026-05-05 17:45 50.03913 8.55003 354 ft 11 kts 159°
2026-05-05 17:45 50.03905 8.55008 355 ft 0 kts 160°
2026-05-05 17:46 50.03904 8.55008 355 ft 0 kts 160°
2026-05-05 17:46 50.03883 8.55020 353 ft 11 kts 160°
2026-05-05 17:46 50.03855 8.55135 355 ft 12 kts 76°
2026-05-05 17:47 50.03886 8.55269 353 ft 14 kts 70°
2026-05-05 17:47 50.03923 8.55423 351 ft 20 kts 70°
2026-05-05 17:47 50.03975 8.55641 353 ft 20 kts 69°
2026-05-05 17:47 50.04005 8.55769 354 ft 17 kts 70°
2026-05-05 17:48 50.04040 8.55916 355 ft 12 kts 70°
2026-05-05 17:48 50.04067 8.56027 353 ft 12 kts 69°
2026-05-05 17:48 50.04097 8.56154 360 ft 14 kts 69°
2026-05-05 17:48 50.04137 8.56319 354 ft 15 kts 69°
2026-05-05 17:49 50.04171 8.56460 358 ft 17 kts 70°
2026-05-05 17:49 50.04211 8.56629 361 ft 14 kts 70°
2026-05-05 17:49 50.04240 8.56747 359 ft 12 kts 66°
2026-05-05 17:49 50.04349 8.56829 360 ft 23 kts 11°
2026-05-05 17:50 50.04489 8.56867 359 ft 17 kts 13°
2026-05-05 17:50 50.04582 8.56901 359 ft 13 kts 13°
2026-05-05 17:50 50.04658 8.56935 356 ft 9 kts 24°
2026-05-05 17:50 50.04700 8.56967 363 ft 6 kts 25°
2026-05-05 17:51 50.04771 8.57018 361 ft 14 kts 25°
2026-05-05 17:51 50.04836 8.57064 361 ft 5 kts 25°
2026-05-05 17:51 50.04857 8.57077 357 ft 3 kts 17°
2026-05-05 17:51 50.04885 8.57075 359 ft 2 kts 346°
2026-05-05 17:52 50.04909 8.57066 359 ft 1 kts 357°
2026-05-05 17:52 50.04910 8.57067 359 ft 1 kts 11°
2026-05-05 17:52 50.04912 8.57073 362 ft 0 kts 47°
2026-05-05 17:52 50.04913 8.57080 363 ft 0 kts 70°
2026-05-05 17:53 50.04913 8.57086 364 ft 1 kts 86°
2026-05-05 17:53 50.04912 8.57089 364 ft 0 kts 97°